Airfield :
LOGIN :

Register | Disclaimer

   EN    FR    IT 

 










Legend :    VFR   Marginal VFR   IFR   Intensive IFR   Very Intensive IFR
Visi :
Ceiling :
>= 8 km
>= 3000ft
5 to 8 km
1000 to 3000 ft
1500m to 5 km
500 to 1000 ft
800 to 1500m
200 to 500 ft
< 800m
< 200 ft
Symbols :   Thunderstorms  Fog  Heavy snow  Heavy precipitations  Wind > 20 kt
SIGMETs :     Misc.  Thunderstorms  Icing  Turbulence  Mountain Waves  Volcanic Ashes







- Airport Elevation : 157 ft
- IATA code : LIL
- Download approach charts


LFQQ - Lille Lesquin

CURRENT METAR :
  • 240030Z AUTO 34002KT CAVOK 13/07 Q1025 NOSIG

EXPIRED METARs :
  • 240000Z AUTO 25002KT CAVOK 13/06 Q1025 NOSIG
  • 232330Z AUTO VRB02KT CAVOK 14/07 Q1025 NOSIG
  • 232300Z AUTO 04005KT CAVOK 14/07 Q1025 NOSIG
  • 232230Z AUTO 36005KT CAVOK 15/07 Q1025 NOSIG
  • 232200Z AUTO 35006KT CAVOK 15/07 Q1025 NOSIG

TAF TAF LFQQ
Valid from the 24 at 00:00 until the 25 at 06:00 UTC


232300Z 2400/2506 VRB03KT CAVOK
BECMG 2407/2409 36013KT
BECMG 2422/2424 VRB03KT
ATIS : +33 3 20 16 19 54
No reported NOTAMs for that airfield.



MET'MAP, your aeronautical weather chart ! - Copyright ORBIFLY December 2007 - Disclaimer

ORBIFLY MET'MAP TEAM :

Programming & Development : Alexandra Zaïnal
Concept & Development : Baudouin d'Aumeries
Co-Development & Prog : Marc-Olivier Méhu
Technical & hardware support : Manuel Goepfert

Contact : metmap@orbifly.com




SOURCES & CREDITS :

   NOAA